Weather History for Sisseton, SD

Change the Weather History Date:

Wednesday, February 20, 2013

  Actual Average Record
Temperature  
Mean Temperature -10 °F 20 °F  
Max Temperature 2 °F 29 °F 59 °F (1981)
Min Temperature -23 °F 11 °F -23 °F (2008)
Degree Days  
Heating Degree Days 75 45  
Month to date heating degree days 1024 966  
Since 1 July heating degree days 5976 5912  
Cooling Degree Days 0 0  
Month to date cooling degree days 0 0  
Year to date cooling degree days 0 0  
Moisture  
Dew Point -13 °F    
Average Humidity 82    
Maximum Humidity 91    
Minimum Humidity 72    
Precipitation  
Precipitation 0.00 in 0.02 in 0.73 in (1955)
Month to date precipitation 1.56 0.27  
Year to date precipitation 2.36 0.70  
Snow  
Snow 0.00 in - - ()
Month to date snowfall 20.3  
Since 1 July snowfall 36.5  
Snow Depth 20.00 in    
Sea Level Pressure  
Sea Level Pressure 30.58 in    
Wind  
Wind Speed 6 mph (South)    
Max Wind Speed 12 mph    
Max Gust Speed 14 mph    
T = Trace of Precipitation, MM = Missing Value Source: NWS Daily Summary

Daily Weather History Graph

Daily Weather History Graph

Search for Another Location

Airport:

Trip Planner

Search our weather history database for the weather conditions in past years. The results will help you decide how hot, cold, wet, or windy it might be!

Date:

Astronomy

Feb. 20, 2013 Rise Set
Actual Time 7:21 AM CST 6:02 PM CST
Civil Twilight 6:51 AM CST 6:32 PM CST
Nautical Twilight 6:16 AM CST 7:07 PM CST
Astronomical Twilight 5:42 AM CST 7:41 PM CST
Moon 1:15 PM CST (2/20) 3:52 AM CST (2/20)
Length of Visible Light 11h 41m
Length of Day
10h 41m
Waxing Gibbous, 76% of the Moon is Illuminated
Feb 20
Waxing Gibbous
Feb 25
Full
Mar 4
Last Quarter
Mar 11
New
Mar 19
First Quarter

Hourly Weather History & Observations

Time (CST) Temp. Windchill Dew Point Humidity Pressure Visibility Wind Dir Wind Speed Gust Speed Precip Events Conditions
12:56 AM -15.0 °F -32.4 °F -18.9 °F 82% 30.64 in - NW 8.1 mph - N/A   Unknown
1:56 AM -16.1 °F -32.3 °F -20.0 °F 82% 30.63 in - NNW 6.9 mph - N/A   Unknown
2:56 AM -18.0 °F -30.9 °F -23.1 °F 78% 30.64 in - NNW 4.6 mph - N/A   Unknown
3:56 AM -18.9 °F - -23.1 °F 81% 30.63 in - Calm Calm - N/A   Unknown
4:56 AM -18.9 °F - -20.9 °F 91% 30.62 in - Calm Calm - N/A   Unknown
5:56 AM -18.9 °F -29.5 °F -24.0 °F 78% 30.63 in - WNW 3.5 mph - N/A   Unknown
6:56 AM -22.0 °F - -27.9 °F 74% 30.62 in - Calm Calm - N/A   Unknown
7:56 AM -20.0 °F - -24.0 °F 82% 30.63 in - Calm Calm - N/A   Unknown
8:56 AM -17.0 °F - -18.9 °F 91% 30.63 in - Calm Calm - N/A   Unknown
9:56 AM -15.0 °F - -16.1 °F 95% 30.62 in - Calm Calm - N/A   Unknown
10:56 AM -9.9 °F -19.2 °F -14.1 °F 82% 30.61 in - South 3.5 mph - N/A   Unknown
11:56 AM -6.0 °F -20.1 °F -11.0 °F 79% 30.59 in - SE 6.9 mph - N/A   Unknown
12:56 PM -4.0 °F -19.0 °F -9.0 °F 79% 30.58 in - SSE 8.1 mph - N/A   Unknown
1:56 PM -2.0 °F -18.7 °F -8.0 °F 76% 30.57 in - SSE 10.4 mph - N/A   Unknown
2:56 PM -0.9 °F -15.3 °F -7.1 °F 75% 30.56 in - SE 8.1 mph - N/A   Unknown
3:56 PM -0.0 °F -15.3 °F -6.0 °F 76% 30.54 in - SSE 9.2 mph - N/A   Unknown
4:56 PM 1.0 °F -12.9 °F -6.0 °F 72% 30.53 in - SSE 8.1 mph - N/A   Unknown
5:56 PM 1.0 °F -14.0 °F -5.1 °F 75% 30.53 in - SSE 9.2 mph - N/A   Unknown
6:56 PM 1.9 °F -12.9 °F -4.0 °F 76% 30.53 in - South 9.2 mph - N/A   Unknown
7:56 PM -0.0 °F -14.2 °F -5.1 °F 79% 30.51 in - South 8.1 mph - N/A   Unknown
8:56 PM -2.0 °F -15.4 °F -6.0 °F 83% 30.50 in - South 6.9 mph - N/A   Unknown
9:56 PM -2.0 °F -15.4 °F -7.1 °F 79% 30.51 in - South 6.9 mph - N/A   Unknown
10:56 PM -2.9 °F -16.5 °F -7.1 °F 82% 30.50 in - South 6.9 mph - N/A   Unknown
11:56 PM -2.0 °F -15.4 °F -6.0 °F 83% 30.50 in - South 6.9 mph - N/A   Unknown